TimeCST,TemperatureF,Dew PointF,Humidity,Sea Level PressureIn,VisibilityMPH,Wind Direction,Wind SpeedMPH,Gust SpeedMPH,PrecipitationIn,Events,Conditions,WindDirDegrees,DateUTC
12:35 AM,46.8,40.5,79,29.78,10.0,ESE,5.8,-,0.02,Rain,Rain,110,2013-03-05 06:35:00
12:55 AM,46.8,40.6,79,29.77,10.0,East,4.6,-,0.02,,Overcast,100,2013-03-05 06:55:00
1:15 AM,47.3,40.6,78,29.77,10.0,East,4.6,-,N/A,,Overcast,100,2013-03-05 07:15:00
1:35 AM,47.5,41.0,78,29.77,10.0,ESE,4.6,-,N/A,,Overcast,110,2013-03-05 07:35:00
1:55 AM,47.5,41.2,79,29.76,10.0,SE,6.9,-,N/A,,Overcast,130,2013-03-05 07:55:00
2:15 AM,47.8,41.5,79,29.75,10.0,SE,6.9,-,N/A,,Overcast,130,2013-03-05 08:15:00
3:15 AM,46.8,41.9,83,29.75,10.0,Calm,Calm,-,N/A,,Mostly Cloudy,0,2013-03-05 09:15:00
3:35 AM,44.4,40.5,86,29.75,10.0,Calm,Calm,-,N/A,,Scattered Clouds,0,2013-03-05 09:35:00
3:55 AM,45.0,43.0,93,29.76,10.0,Calm,Calm,-,N/A,,Clear,0,2013-03-05 09:55:00
4:15 AM,43.9,43.2,97,29.75,10.0,Calm,Calm,-,N/A,,Clear,0,2013-03-05 10:15:00
4:35 AM,43.3,42.8,98,29.78,10.0,Calm,Calm,-,N/A,,Clear,0,2013-03-05 10:35:00
4:55 AM,40.5,40.5,100,29.77,10.0,Calm,Calm,-,N/A,,Clear,0,2013-03-05 10:55:00
5:15 AM,41.7,41.7,100,29.77,7.0,Calm,Calm,-,N/A,,Clear,0,2013-03-05 11:15:00
5:35 AM,40.5,40.5,100,29.77,7.0,Calm,Calm,-,N/A,,Clear,0,2013-03-05 11:35:00
6:15 AM,40.1,40.1,100,29.77,5.0,Calm,Calm,-,N/A,,Scattered Clouds,0,2013-03-05 12:15:00
6:55 AM,42.3,42.3,100,29.77,10.0,Calm,Calm,-,N/A,,Mostly Cloudy,0,2013-03-05 12:55:00
7:15 AM,41.9,41.9,100,29.78,7.0,Calm,Calm,-,N/A,,Scattered Clouds,0,2013-03-05 13:15:00
7:35 AM,43.2,43.2,100,29.78,7.0,Calm,Calm,-,N/A,Rain,Rain,0,2013-03-05 13:35:00
7:55 AM,44.1,44.1,100,29.79,10.0,Calm,Calm,-,N/A,Rain,Rain,0,2013-03-05 13:55:00
8:15 AM,44.6,44.6,100,29.80,10.0,West,5.8,-,N/A,Rain,Light Rain,280,2013-03-05 14:15:00
8:35 AM,44.6,44.1,98,29.79,10.0,WNW,8.1,-,N/A,Rain,Light Rain,300,2013-03-05 14:35:00
8:55 AM,45.0,43.3,94,29.80,10.0,WNW,12.7,20.7,N/A,Rain,Light Rain,300,2013-03-05 14:55:00
9:15 AM,43.7,40.1,87,29.80,10.0,NW,11.5,18.4,N/A,,Light Drizzle,320,2013-03-05 15:15:00
9:55 AM,42.8,39.7,89,29.81,10.0,NW,11.5,18.4,0.01,,Light Drizzle,310,2013-03-05 15:55:00
10:15 AM,41.5,37.8,86,29.82,10.0,WNW,17.3,29.9,N/A,,Overcast,290,2013-03-05 16:15:00
10:35 AM,39.6,35.6,86,29.83,10.0,WNW,13.8,24.2,N/A,,Light Drizzle,300,2013-03-05 16:35:00
10:55 AM,38.3,34.3,86,29.83,10.0,NW,17.3,32.2,N/A,Rain,Light Rain,310,2013-03-05 16:55:00
11:15 AM,37.2,33.3,86,29.85,7.0,NW,17.3,24.2,N/A,Rain,Rain,310,2013-03-05 17:15:00
11:35 AM,35.2,34.0,95,29.88,5.0,WNW,10.4,19.6,0.01,Rain,Rain,290,2013-03-05 17:35:00
11:55 AM,34.5,34.2,99,29.88,4.0,WNW,11.5,16.1,0.02,Rain,Rain,300,2013-03-05 17:55:00
12:15 PM,34.3,34.3,100,29.89,1.8,WNW,11.5,17.3,0.01,Snow,Light Snow,290,2013-03-05 18:15:00
12:55 PM,35.4,35.1,99,29.89,10.0,West,13.8,20.7,0.01,Rain,Light Rain,280,2013-03-05 18:55:00
1:15 PM,35.8,34.7,96,29.90,10.0,WNW,16.1,20.7,N/A,,Light Drizzle,290,2013-03-05 19:15:00
1:35 PM,36.9,34.2,90,29.90,10.0,WNW,16.1,23.0,N/A,,Overcast,290,2013-03-05 19:35:00
1:55 PM,36.5,34.0,91,29.91,10.0,WNW,15.0,27.6,N/A,,Overcast,300,2013-03-05 19:55:00
2:15 PM,36.5,33.8,90,29.92,10.0,WNW,16.1,24.2,N/A,,Overcast,300,2013-03-05 20:15:00
2:35 PM,37.6,31.5,79,29.92,10.0,NW,16.1,32.2,N/A,,Overcast,310,2013-03-05 20:35:00
2:55 PM,37.9,31.8,79,29.93,10.0,WNW,16.1,21.9,N/A,,Overcast,290,2013-03-05 20:55:00
3:15 PM,37.8,31.3,77,29.94,10.0,WNW,16.1,24.2,N/A,,Overcast,290,2013-03-05 21:15:00
3:35 PM,39.4,30.7,71,29.95,10.0,NW,15.0,23.0,N/A,,Overcast,310,2013-03-05 21:35:00
3:55 PM,39.2,30.4,71,29.95,10.0,WNW,15.0,18.4,N/A,,Overcast,290,2013-03-05 21:55:00
4:15 PM,39.2,29.3,68,29.96,10.0,WNW,15.0,26.5,N/A,,Overcast,290,2013-03-05 22:15:00
4:35 PM,39.2,27.9,64,29.97,10.0,WNW,19.6,24.2,N/A,,Overcast,300,2013-03-05 22:35:00
4:55 PM,39.2,27.9,64,29.98,10.0,WNW,11.5,18.4,N/A,,Overcast,290,2013-03-05 22:55:00
5:15 PM,39.2,25.5,58,29.99,10.0,WNW,16.1,27.6,N/A,,Overcast,290,2013-03-05 23:15:00
5:35 PM,38.5,23.7,55,30.00,10.0,WNW,15.0,31.1,N/A,,Overcast,290,2013-03-05 23:35:00
5:55 PM,37.6,23.0,56,30.01,10.0,NW,20.7,32.2,N/A,,Overcast,310,2013-03-05 23:55:00
6:15 PM,36.5,23.2,59,30.03,10.0,WNW,24.2,32.2,N/A,,Overcast,300,2013-03-06 00:15:00
6:35 PM,34.7,20.7,57,30.04,10.0,West,16.1,21.9,N/A,,Mostly Cloudy,280,2013-03-06 00:35:00
6:55 PM,34.3,20.7,57,30.04,10.0,WNW,13.8,23.0,N/A,,Scattered Clouds,290,2013-03-06 00:55:00
7:15 PM,34.2,21.7,60,30.05,10.0,WNW,16.1,21.9,N/A,,Mostly Cloudy,290,2013-03-06 01:15:00
7:35 PM,34.5,21.9,60,30.04,10.0,WNW,13.8,19.6,N/A,,Overcast,290,2013-03-06 01:35:00
7:55 PM,34.7,22.5,61,30.05,10.0,West,13.8,25.3,N/A,,Overcast,280,2013-03-06 01:55:00
8:15 PM,34.7,22.6,61,30.04,10.0,West,16.1,21.9,N/A,,Overcast,280,2013-03-06 02:15:00
8:35 PM,34.9,22.6,61,30.04,10.0,WNW,15.0,24.2,N/A,,Overcast,290,2013-03-06 02:35:00
8:55 PM,34.9,23.0,62,30.04,10.0,West,15.0,23.0,N/A,,Overcast,270,2013-03-06 02:55:00
9:15 PM,34.7,23.5,64,30.05,10.0,WNW,16.1,20.7,N/A,,Overcast,290,2013-03-06 03:15:00
9:35 PM,34.0,25.3,71,30.06,7.0,WNW,18.4,29.9,N/A,Snow,Light Snow,300,2013-03-06 03:35:00
9:55 PM,33.1,27.0,78,30.06,7.0,West,17.3,28.8,N/A,Snow,Light Snow,280,2013-03-06 03:55:00
10:15 PM,33.4,26.6,76,30.06,10.0,West,13.8,24.2,N/A,,Overcast,280,2013-03-06 04:15:00
10:35 PM,33.8,26.2,74,30.06,10.0,WNW,15.0,21.9,N/A,,Overcast,300,2013-03-06 04:35:00
10:55 PM,34.3,25.5,70,30.06,10.0,NW,15.0,27.6,N/A,,Overcast,310,2013-03-06 04:55:00
11:15 PM,34.3,25.3,70,30.06,10.0,WNW,15.0,23.0,N/A,,Overcast,300,2013-03-06 05:15:00
11:35 PM,34.5,25.5,70,30.06,10.0,West,15.0,25.3,N/A,,Overcast,280,2013-03-06 05:35:00
11:55 PM,34.7,25.2,68,30.06,10.0,WNW,18.4,27.6,N/A,,Overcast,290,2013-03-06 05:55:00